Terug naar catalogus

STARLINK-4552

ActiefCommunicatieVLEO
NORAD 53420·PAYLOAD·🇺🇸 United States

Gelanceerd Aug 10, 2022 vanaf Cape Canaveral Space Force Station

Loading…

Volgende Passages (komende 24 uur)

TLE

VersSource: CelesTrak SupGP

Epoch: Sep 14, 2026, 21:53 UTC

1 53420C 22097AJ  26257.91229167 -.00025353  00000+0 -74930-3 0  2575
2 53420  53.1574 332.0091 0001214  86.5845 287.0590 15.34393647    10

Volg STARLINK-4552 in realtime met AllMySat

Download on the App Store